User: anonymous
Location: Sawmill Trailhead
(33.5800°N, 116.4497°W)
Time: 10:12:03
(UTC-07:00)
Language:

Uosat F - Orbit

View from above orbital plane
View from above orbital plane
View from above satellite
View from above satellite

Ground track
Ground track

The orbit data is extracted from the following two-line orbital elements,

1 21575U 91050B   14206.48596499  .00000050  00000-0  30119-4 0   693
2 21575 098.7020 183.3329 0007103 199.5117 272.4803 14.40400361208998
Epoch (UTC): 25 July 2014 11:39:47
Eccentricity: 0.0007103
inclination: 98.7020°
perigee height: 752 km
apogee height: 762 km
right ascension of ascending node: 183.3329°
argument of perigee: 199.5117°
revolutions per day: 14.40400361
mean anomaly at epoch: 272.4803°
orbit number at epoch: 20899

The dashed part of the orbit path shows where the satellite is in the earth's shadow,  

DLR